sat.trackr.live / text

‹ back to catalog

STARLINK-32849

NORAD 62872 · 2025-022U

PAYLOAD ACTIVE UNKNOWN

§ Identity

Operator
Country
US
Launch date
2025-02-01
Launch site
AFWTR
Launch vehicle
Mass (kg)
RCS (m²)

Purposes: comms

External: N2YO · Heavens-Above · Gunter

§ Orbital elements

Epoch: 2026-05-25T03:32:25.937952Z

Period
93.90 min
Inclination
53.1596°
Eccentricity
0.0001088
Mean motion
15.33568620 rev/d
Perigee alt
464.4 km
Apogee alt
465.9 km
Semi-major
6,843.3 km
B*
7.3293e-4
RAAN
134.6531°
Arg perigee
125.7112°
Mean anomaly
234.3991°
Rev number
7,360

§ Raw data

STARLINK-328491 62872U 25022U   26145.14752243  .00023823  00000+0  73293-3 0  99962 62872  53.1596 134.6531 0001088 125.7112 234.3991 15.33568620 73601

JSON: /api/v1/satellites/62872 · /tle

For live sub-satellite position, see the globe view (requires WebGL).

§ Visibility from observer

Set your observer location to see the next 7 days of passes ≥ 10°. The values pass through the URL so the page stays shareable.

No JS? Fill the form by hand. The geolocation button needs JavaScript.